Location: Castelbiague
(43.0361°N, 0.9246°E)
Time: 08:05:40
(UTC+00:00)

Cosmos 1980 - Pass Details

Date: 17 June 2021
Orbit: 839 x 847 km, 71.0° (Epoch: 01 August)

Event Time Altitude Azimuth Distance (km) Brightness Sun altitude
Exits shadow 22:35:42 40° 136° (SE) 1,231 4.1 -20.9°
Maximum altitude 22:36:46 44° 107° (ESE) 1,153 4.1 -21.0°
Drops below altitude 10° 22:42:07 10° 37° (NE) 2,477 6.6 -21.3°
Sets 22:44:40 0° 31° (NNE) 3,418 7.5 -21.5°
